Powrót do katalogu

STARLINK-35276

AktywnyŁącznośćVLEO
NORAD 66009·PAYLOAD·🇺🇸 United States

Wystrzelony Oct 16, 2025 z Cape Canaveral Space Force Station

Loading…

Następne Przeloty (najbliższe 24 godziny)

TLE

ŚwieżeSource: CelesTrak SupGP

Epoka: Sep 15, 2026, 03:36 UTC

1 66009C 25232E   26258.15048611  .00019830  00000+0  58571-3 0  2581
2 66009  53.1566 302.4121 0001166  94.1909 267.5909 15.34390213    18

Śledź STARLINK-35276 w czasie rzeczywistym z AllMySat

Download on the App Store